Regional Weather Roundup
Issued by NWS

Home | Current Version | Previous Version | Graphics & Text | Print | Product List | Glossary On
Versions: 1 2 3 4 5 6 7 8 9 10 11 12 13 14 15 16 17 18 19 20 21 22 23 24 25 26 27 28 29 30 31 32 33 34 35 36 37 38 39 40 41 42 43 44 45 46 47 48 49 50
000
ASUS43 KOAX 280502
RWRNE

WEATHER ROUNDUP FOR NEBRASKA
NATIONAL WEATHER SERVICE OMAHA NE
1200 AM CDT SUN MAY 28 2017

NOTES: SATELLITE DATA IS BEING USED TO AUGMENT CLOUD COVER ABOVE
       12000 FEET.
       "FAIR" INDICATES FEW OR NO CLOUDS BELOW 12,000 FEET WITH NO
       SIGNIFICANT WEATHER AND/OR OBSTRUCTIONS TO VISIBILITY.

  * THESE STATIONS DO NOT REPORT WEATHER SUCH AS RAIN...SNOW OR FOG.

NEZ001>004-019>022-054>056-280600-
NEBRASKA PANHANDLE

CITY           SKY/WX    TMP DP  RH WIND       PRES   REMARKS
SCOTTSBLUFF    CLEAR     48  42  80 NW6       30.15R
ALLIANCE       CLEAR     43  40  89 W9        30.10F
CHADRON        PTCLDY    49  43  80 SW7       30.09R
GORDON         CLOUDY    56  45  66 W7        30.07S
KIMBALL        CLEAR     46  40  79 W9        30.20R
SIDNEY         CLEAR     42  39  89 SW9       30.16R
$$

NEZ057>060-069>072-079>082-280600-
SOUTHWEST NEBRASKA

CITY           SKY/WX    TMP DP  RH WIND       PRES   REMARKS
NORTH PLATTE   CLEAR     46  45  96 CALM      30.08S
IMPERIAL       CLEAR     52  44  74 W8        30.12S
LEXINGTON      CLEAR     51  48  90 W6        30.05F
MCCOOK         CLEAR     53  50  89 W7        30.09R
OGALLALA       CLEAR     47  45  91 W6        30.11S
$$

NEZ005>010-023>029-035>040-094-280600-
NORTH CENTRAL NEBRASKA

CITY           SKY/WX    TMP DP  RH WIND       PRES   REMARKS
VALENTINE      CLOUDY    58  45  62 W9        30.01R
AINSWORTH      CLOUDY    55  47  76 W8        30.00F
BROKEN BOW     CLEAR     53  50  89 W6        30.03F
O`NEILL        CLEAR     53  49  87 SW7       29.98S
ORD            CLEAR     51  47  86 CALM      29.99F
THEDFORD       CLEAR     51  45  81 SW6       30.05S
$$

NEZ041-046>049-061>064-073>077-083>087-280600-
SOUTH CENTRAL NEBRASKA

CITY           SKY/WX    TMP DP  RH WIND       PRES   REMARKS
GRAND ISLAND   PTCLDY    55  52  89 W7        30.02R
AURORA         PTCLDY    58  52  80 NW8       30.00S
HASTINGS       MOCLDY    58  51  78 NW9       30.02S
HEBRON         PTCLDY    62  55  76 NW6       29.98S
HOLDREGE       PTCLDY    54  50  87 W3        30.04F
KEARNEY *      MOCLDY    55  48  76 NW7       30.03F
YORK           CLEAR     59  50  72 NW13      29.99S
$$

NEZ011>018-030>034-042>045-280600-
NORTHEAST NEBRASKA

CITY           SKY/WX    TMP DP  RH WIND       PRES   REMARKS
NORFOLK        CLEAR     52  49  89 W5        29.96F
ALBION         CLEAR     53  49  86 NW6       29.99S
BLAIR          PTCLDY    61  53  74 NW9       29.93R
FREMONT        MOCLDY    60  52  76 W6        29.96R
TEKAMAH        MOCLDY    59  52  77 NW6       29.93R
WAYNE          CLEAR     51  50  99 CALM      29.95F
$$

NEZ050>053-065>068-078-088>093-280600-
SOUTHEAST NEBRASKA

CITY           SKY/WX    TMP DP  RH WIND       PRES   REMARKS
LINCOLN        CLEAR     63  53  70 NW7       29.96R
OMAHA EPPLEY   PTCLDY    59  54  83 NW5       29.92R
BEATRICE       PTCLDY    59  58  96 NW6       29.95R
FALLS CITY     CLEAR     61  58  90 NW7       29.89S
NEBRASKA CITY  CLEAR     61  56  82 NW7       29.92R
PLATTSMOUTH    CLEAR     60  55  85 W6        29.92R
$$

NEZ044-045-051>053-067-280600-
OMAHA AREA

CITY           SKY/WX    TMP DP  RH WIND       PRES   REMARKS
OMAHA EPPLEY   PTCLDY    59  54  83 NW5       29.92R
BLAIR          PTCLDY    61  53  74 NW9       29.93R
FREMONT        MOCLDY    60  52  76 W6        29.96R
MILLARD        CLEAR     62  56  80 NW6       29.93R
OFFUTT AFB     CLEAR     57  54  88 NW8       29.92R
PLATTSMOUTH    CLEAR     60  55  85 W6        29.92R
WAHOO          FAIR      60  51  72 NW7       29.95R
$$




USA.gov is the U.S. government's official web portal to all federal, state and local government web resources and services.